�������l�o���
Date,Time,MP-1(��Sv/h),MP-2(��Sv/h),MP-3(��Sv/h),MP-4(��Sv/h),MP-5(��Sv/h),MP-6(��Sv/h),MP-7(��Sv/h),MP-8(��Sv/h),����,����(m/s),���J
2023/09/11,00:00,0.516,0.766,0.480,0.960,0.676,0.320,0.564,0.525,�k,1.9,��
2023/09/11,00:10,0.518,0.764,0.480,0.962,0.677,0.318,0.566,0.525,�k,1.7,��
2023/09/11,00:20,0.518,0.765,0.481,0.960,0.675,0.319,0.565,0.525,�k�k��,1.9,��
2023/09/11,00:30,0.516,0.765,0.480,0.959,0.676,0.320,0.565,0.525,�k�k��,1.9,��
2023/09/11,00:40,0.517,0.763,0.479,0.961,0.675,0.320,0.563,0.524,�k,2.3,��
2023/09/11,00:50,0.518,0.768,0.480,0.959,0.677,0.319,0.565,0.526,�k,1.5,��
2023/09/11,01:00,0.518,0.766,0.479,0.960,0.676,0.320,0.564,0.526,�k�k��,2.3,��
2023/09/11,01:10,0.518,0.764,0.479,0.960,0.676,0.320,0.566,0.525,�k�k��,1.5,��
2023/09/11,01:20,0.517,0.764,0.479,0.960,0.676,0.318,0.565,0.525,�k�k��,2.2,��
2023/09/11,01:30,0.518,0.765,0.480,0.961,0.676,0.319,0.565,0.525,�k�k��,2.2,��
2023/09/11,01:40,0.518,0.766,0.479,0.961,0.675,0.319,0.565,0.526,�k�k��,2.1,��
2023/09/11,01:50,0.517,0.766,0.479,0.960,0.677,0.319,0.566,0.526,�k�k��,2.0,��
2023/09/11,02:00,0.516,0.765,0.478,0.960,0.677,0.319,0.565,0.524,�k��,1.8,��
2023/09/11,02:10,0.517,0.765,0.479,0.960,0.676,0.318,0.566,0.525,�k�k��,1.2,��
2023/09/11,02:20,0.517,0.765,0.479,0.961,0.677,0.319,0.565,0.527,�k��,0.9,��
2023/09/11,02:30,0.517,0.766,0.479,0.963,0.676,0.319,0.565,0.526,�k��,1.4,��
2023/09/11,02:40,0.517,0.767,0.479,0.959,0.677,0.318,0.566,0.526,�k��,1.7,��
2023/09/11,02:50,0.515,0.764,0.479,0.959,0.675,0.318,0.564,0.525,�k�k��,1.2,��
2023/09/11,03:00,0.517,0.763,0.478,0.960,0.677,0.318,0.565,0.525,�k,1.2,��
2023/09/11,03:10,0.518,0.766,0.479,0.960,0.674,0.319,0.566,0.527,�k�k��,1.2,��
2023/09/11,03:20,0.517,0.765,0.478,0.960,0.675,0.318,0.566,0.526,�k��,0.6,��
2023/09/11,03:30,0.517,0.765,0.480,0.960,0.676,0.320,0.565,0.524,���k��,0.6,��
2023/09/11,03:40,0.518,0.765,0.480,0.961,0.676,0.319,0.565,0.525,-,CALM,��
2023/09/11,03:50,0.516,0.764,0.479,0.960,0.677,0.320,0.565,0.526,���k��,0.8,��
2023/09/11,04:00,0.516,0.765,0.477,0.960,0.676,0.319,0.564,0.525,���k��,1.1,��
2023/09/11,04:10,0.519,0.762,0.480,0.960,0.675,0.320,0.566,0.525,���k��,0.6,��
2023/09/11,04:20,0.518,0.767,0.480,0.960,0.675,0.319,0.565,0.525,-,CALM,��
2023/09/11,04:30,0.516,0.767,0.479,0.960,0.678,0.319,0.565,0.526,-,CALM,��
2023/09/11,04:40,0.518,0.767,0.479,0.959,0.678,0.318,0.565,0.527,��,0.6,��
2023/09/11,04:50,0.517,0.766,0.480,0.961,0.676,0.320,0.567,0.526,�쓌,0.6,��
2023/09/11,05:00,0.516,0.767,0.479,0.959,0.675,0.319,0.564,0.526,-,CALM,��
2023/09/11,05:10,0.517,0.767,0.478,0.961,0.675,0.319,0.566,0.527,��,0.6,��
2023/09/11,05:20,0.519,0.768,0.479,0.960,0.676,0.319,0.566,0.526,��쓌,0.9,��
2023/09/11,05:30,0.518,0.768,0.478,0.960,0.676,0.319,0.566,0.527,�쓌,1.4,��
2023/09/11,05:40,0.517,0.768,0.478,0.957,0.677,0.320,0.564,0.526,��쓌,1.7,��
2023/09/11,05:50,0.517,0.765,0.480,0.962,0.676,0.318,0.566,0.526,��,2.3,��
2023/09/11,06:00,0.517,0.767,0.479,0.959,0.677,0.318,0.566,0.525,��,2.3,��
2023/09/11,06:10,0.518,0.766,0.479,0.962,0.676,0.319,0.566,0.526,��쐼,1.5,��
2023/09/11,06:20,0.515,0.768,0.479,0.962,0.677,0.320,0.565,0.526,��,2.0,��
2023/09/11,06:30,0.516,0.767,0.479,0.962,0.677,0.320,0.566,0.527,��쐼,1.9,��
2023/09/11,06:40,0.517,0.768,0.478,0.962,0.677,0.318,0.565,0.527,��쐼,1.5,��
2023/09/11,06:50,0.518,0.769,0.480,0.961,0.677,0.319,0.566,0.526,��쐼,1.5,��
2023/09/11,07:00,0.518,0.768,0.480,0.958,0.675,0.319,0.566,0.526,��쐼,1.4,��
2023/09/11,07:10,0.516,0.768,0.480,0.960,0.678,0.320,0.566,0.525,�쐼,1.2,��
2023/09/11,07:20,0.520,0.767,0.480,0.960,0.677,0.319,0.565,0.525,��,1.7,��
2023/09/11,07:30,0.517,0.769,0.481,0.961,0.677,0.319,0.567,0.525,�쓌,1.7,��
2023/09/11,07:40,0.518,0.768,0.480,0.959,0.676,0.318,0.567,0.524,��쓌,2.6,��
2023/09/11,07:50,0.516,0.769,0.480,0.959,0.676,0.318,0.565,0.524,��쓌,3.4,��
2023/09/11,08:00,0.518,0.768,0.480,0.961,0.677,0.319,0.566,0.527,��쓌,2.6,��
2023/09/11,08:10,0.517,0.766,0.480,0.960,0.676,0.319,0.565,0.524,�쓌,2.5,��
2023/09/11,08:20,0.517,0.768,0.478,0.959,0.677,0.318,0.567,0.526,�쓌,3.9,��
2023/09/11,08:30,0.517,0.767,0.479,0.962,0.676,0.318,0.567,0.527,�쓌,3.4,��
2023/09/11,08:40,0.515,0.768,0.478,0.961,0.676,0.319,0.567,0.527,�쓌,3.6,��
2023/09/11,08:50,0.517,0.766,0.479,0.960,0.678,0.320,0.567,0.525,��쓌,3.9,��
2023/09/11,09:00,0.517,0.767,0.479,0.961,0.677,0.319,0.567,0.523,�쓌,4.7,��
2023/09/11,09:10,0.518,0.764,0.481,0.960,0.675,0.318,0.567,0.523,�쓌,4.9,��
2023/09/11,09:20,0.517,0.766,0.478,0.960,0.676,0.318,0.566,0.523,��쓌,4.7,��
2023/09/11,09:30,0.517,0.766,0.480,0.961,0.675,0.318,0.567,0.524,��쓌,7.1,��
2023/09/11,09:40,0.518,-,0.481,0.961,0.670,0.319,0.565,0.525,��쓌,9.0,��
2023/09/11,09:50,0.518,-,0.479,0.961,0.678,0.316,0.566,0.525,��쓌,10.0,��
2023/09/11,10:00,0.517,-,0.481,0.959,0.676,0.316,0.566,0.525,��쓌,9.5,��
2023/09/11,10:10,0.516,-,0.479,0.959,0.677,0.318,0.564,0.524,��쓌,8.9,��
2023/09/11,10:20,0.518,-,0.480,0.959,0.677,0.317,0.565,0.526,��쓌,9.6,��
2023/09/11,10:30,0.515,-,0.479,0.960,0.678,0.319,0.565,0.525,��쓌,9.3,��
2023/09/11,10:40,0.518,-,0.481,0.960,0.677,0.316,0.565,0.523,��쓌,10.2,��
2023/09/11,10:50,0.519,-,0.480,0.962,0.677,0.317,0.567,0.524,��쓌,9.4,��
2023/09/11,11:00,0.520,-,0.481,0.960,0.678,0.317,0.565,0.525,��쓌,10.2,��
2023/09/11,11:10,0.518,-,0.481,0.961,0.678,0.317,0.563,0.524,��쓌,9.6,��
2023/09/11,11:20,0.518,-,0.481,0.962,0.679,0.318,0.565,0.526,��쓌,10.2,��
2023/09/11,11:30,0.517,-,0.481,0.963,0.679,0.317,0.565,0.525,��쓌,10.7,��
2023/09/11,11:40,0.519,0.769,0.479,0.960,0.677,0.318,0.566,0.526,��쓌,10.9,��
2023/09/11,11:50,0.517,0.771,0.479,0.962,0.679,0.316,0.566,0.524,��쓌,10.8,��
2023/09/11,12:00,0.516,0.771,0.478,0.961,0.679,0.318,0.565,0.525,��쓌,10.9,��
2023/09/11,12:10,0.518,0.772,0.478,0.961,0.679,0.318,0.565,0.528,��쓌,10.2,��
2023/09/11,12:20,0.517,0.775,0.481,0.961,0.680,0.319,0.566,0.525,��쓌,10.8,��
2023/09/11,12:30,0.519,0.775,0.479,0.964,0.681,0.318,0.566,0.526,��쓌,10.9,��
2023/09/11,12:40,0.519,0.774,0.481,0.963,0.680,0.319,0.567,0.526,��쓌,9.4,��
2023/09/11,12:50,0.520,0.776,0.480,0.962,0.681,0.318,0.565,0.528,��쓌,9.4,��
2023/09/11,13:00,0.519,0.775,0.481,0.964,0.681,0.318,0.567,0.527,��쓌,11.6,��
2023/09/11,13:10,0.520,0.774,0.481,0.962,0.683,0.318,0.565,0.527,��쓌,11.4,��
2023/09/11,13:20,0.519,0.772,0.479,0.962,0.681,0.318,0.565,0.527,��쓌,11.6,��
2023/09/11,13:30,0.521,0.774,0.481,0.962,0.681,0.319,0.566,0.526,��쓌,11.8,��
2023/09/11,13:40,0.518,0.774,0.481,0.965,0.682,0.319,0.567,0.529,��쓌,11.4,��
2023/09/11,13:50,0.521,0.775,0.480,0.964,0.682,0.319,0.566,0.528,��쓌,11.6,��
2023/09/11,14:00,0.519,0.776,0.481,0.965,0.680,0.321,0.567,0.528,��쓌,11.3,��
2023/09/11,14:10,0.519,0.775,0.480,0.964,0.683,0.320,0.567,0.527,��쓌,9.4,��
2023/09/11,14:20,0.520,0.775,0.482,0.963,0.682,0.321,0.568,0.528,��쓌,10.8,��
2023/09/11,14:30,0.520,0.777,0.480,0.966,0.681,0.320,0.567,0.526,��쓌,10.0,��
2023/09/11,14:40,0.521,0.775,0.480,0.966,0.683,0.320,0.567,0.526,��쓌,11.3,��
2023/09/11,14:50,0.520,0.778,0.481,0.967,0.685,0.321,0.568,0.526,��쓌,10.8,��
2023/09/11,15:00,0.520,0.777,0.480,0.968,0.682,0.319,0.566,0.528,��쓌,10.5,��
2023/09/11,15:10,0.521,0.776,0.482,0.967,0.683,0.320,0.567,0.527,��쓌,10.9,��
2023/09/11,15:20,0.519,0.777,0.481,0.966,0.682,0.319,0.566,0.526,��쓌,9.8,��
2023/09/11,15:30,0.521,0.778,0.480,0.966,0.682,0.319,0.566,0.526,��쓌,10.7,��
2023/09/11,15:40,0.522,0.778,0.482,0.965,0.682,0.320,0.567,0.526,��쓌,10.2,��
2023/09/11,15:50,0.521,0.778,0.479,0.966,0.683,0.320,0.566,0.528,��,10.2,��
2023/09/11,16:00,0.519,0.776,0.480,0.966,0.683,0.319,0.565,0.527,��,9.6,��
2023/09/11,16:10,0.520,0.780,0.481,0.968,0.684,0.321,0.567,0.527,��쓌,9.7,��
2023/09/11,16:20,0.522,0.778,0.482,0.967,0.683,0.319,0.566,0.527,��쓌,10.3,��
2023/09/11,16:30,0.520,0.777,0.480,0.969,0.684,0.318,0.566,0.527,��쓌,7.8,��
2023/09/11,16:40,0.521,0.779,0.481,0.969,0.684,0.320,0.566,0.527,��쓌,8.5,��
2023/09/11,16:50,0.522,0.779,0.482,0.966,0.685,0.321,0.565,0.527,��,7.6,��
2023/09/11,17:00,0.520,0.778,0.481,0.966,0.684,0.320,0.567,0.524,��쓌,8.0,��
2023/09/11,17:10,0.520,0.777,0.479,0.966,0.682,0.320,0.567,0.525,��쓌,8.1,��
2023/09/11,17:20,0.521,0.777,0.480,0.965,0.684,0.319,0.566,0.527,��쓌,8.9,��
2023/09/11,17:30,0.521,0.781,0.482,0.967,0.685,0.318,0.565,0.525,��쓌,7.8,��
2023/09/11,17:40,0.522,0.779,0.482,0.967,0.683,0.321,0.566,0.526,��,7.2,��
2023/09/11,17:50,0.521,0.780,0.481,0.967,0.686,0.320,0.565,0.525,��,6.7,��
2023/09/11,18:00,0.521,0.781,0.483,0.967,0.686,0.320,0.567,0.525,��,7.1,��
2023/09/11,18:10,0.519,0.782,0.483,0.968,0.685,0.320,0.567,0.525,��,7.1,��
2023/09/11,18:20,0.521,0.780,0.482,0.967,0.687,0.320,0.566,0.527,��,7.1,��
2023/09/11,18:30,0.519,0.783,0.482,0.965,0.684,0.320,0.566,0.525,��,8.6,��
2023/09/11,18:40,0.522,0.779,0.482,0.967,0.686,0.320,0.566,0.525,��,7.6,��
2023/09/11,18:50,0.521,0.781,0.483,0.968,0.687,0.320,0.566,0.526,��,8.2,��
2023/09/11,19:00,0.520,0.782,0.483,0.967,0.687,0.320,0.567,0.528,��,8.5,��
2023/09/11,19:10,0.522,0.784,0.482,0.969,0.685,0.320,0.566,0.525,��,7.8,��
2023/09/11,19:20,0.521,0.781,0.482,0.966,0.687,0.319,0.568,0.526,��,7.6,��
2023/09/11,19:30,0.522,0.780,0.483,0.968,0.685,0.320,0.567,0.526,��,7.8,��
2023/09/11,19:40,0.523,0.782,0.484,0.968,0.686,0.320,0.566,0.526,��,7.6,��
2023/09/11,19:50,0.522,0.781,0.482,0.967,0.685,0.319,0.566,0.526,��,7.5,��
2023/09/11,20:00,0.521,0.784,0.482,0.967,0.684,0.321,0.568,0.527,��,7.6,��
2023/09/11,20:10,0.523,0.783,0.482,0.967,0.685,0.320,0.566,0.526,��,7.7,��
2023/09/11,20:20,0.521,0.782,0.483,0.968,0.687,0.320,0.567,0.527,��,8.2,��
2023/09/11,20:30,0.522,0.781,0.484,0.966,0.685,0.320,0.566,0.527,��,7.9,��
2023/09/11,20:40,0.520,0.784,0.483,0.966,0.686,0.321,0.567,0.527,��,7.2,��
2023/09/11,20:50,0.522,0.782,0.483,0.967,0.686,0.321,0.567,0.526,��,7.9,��
2023/09/11,21:00,0.520,0.780,0.483,0.966,0.688,0.321,0.566,0.527,��,9.7,��
2023/09/11,21:10,0.521,0.781,0.483,0.967,0.685,0.319,0.567,0.526,��,10.3,��
2023/09/11,21:20,0.521,0.783,0.482,0.969,0.687,0.321,0.567,0.528,��,9.9,��
2023/09/11,21:30,0.521,0.782,0.484,0.967,0.685,0.320,0.568,0.526,��,10.5,��
2023/09/11,21:40,0.521,0.781,0.484,0.969,0.685,0.320,0.567,0.527,��,8.5,��
2023/09/11,21:50,0.523,0.782,0.482,0.966,0.686,0.320,0.568,0.528,��,10.2,��
2023/09/11,22:00,0.521,0.782,0.483,0.968,0.685,0.321,0.568,0.528,��,8.4,��
2023/09/11,22:10,0.520,0.781,0.483,0.968,0.685,0.321,0.567,0.527,��,6.5,��
2023/09/11,22:20,0.522,0.784,0.482,0.969,0.686,0.319,0.568,0.527,��,6.2,��
2023/09/11,22:30,0.523,0.782,0.481,0.969,0.686,0.319,0.567,0.526,��,6.6,��
2023/09/11,22:40,0.522,0.784,0.484,0.967,0.687,0.322,0.567,0.528,��,7.1,��
2023/09/11,22:50,0.522,0.783,0.482,0.968,0.686,0.320,0.567,0.527,��,7.9,��
2023/09/11,23:00,0.520,0.783,0.482,0.969,0.686,0.321,0.569,0.527,��,6.7,��
2023/09/11,23:10,0.521,0.781,0.482,0.968,0.686,0.319,0.567,0.527,��,6.2,��
2023/09/11,23:20,0.520,0.782,0.483,0.968,0.686,0.319,0.567,0.527,��,7.5,��
2023/09/11,23:30,0.520,0.785,0.482,0.969,0.686,0.320,0.566,0.526,��,7.4,��
2023/09/11,23:40,0.520,0.782,0.483,0.967,0.686,0.320,0.566,0.526,��,7.5,��
2023/09/11,23:50,0.521,0.783,0.483,0.970,0.688,0.320,0.566,0.528,��,7.7,��
